Year,Month,Day,Hour,Minute,Value (Times are PST for temperature in C)
2016,08,19,00,00,18.30
2016,08,19,00,01,18.30
2016,08,19,00,02,18.30
2016,08,19,00,03,18.30
2016,08,19,00,04,18.30
2016,08,19,00,05,18.30
2016,08,19,00,06,18.20
2016,08,19,00,07,18.20
2016,08,19,00,08,18.20
2016,08,19,00,09,18.20
2016,08,19,00,10,18.20
2016,08,19,00,11,18.20
2016,08,19,00,12,18.10
2016,08,19,00,13,18.10
2016,08,19,00,14,18.10
2016,08,19,00,15,18.10
2016,08,19,00,16,18.10
2016,08,19,00,17,18.10
2016,08,19,00,18,18.00
2016,08,19,00,19,18.00
2016,08,19,00,20,18.00
2016,08,19,00,21,18.00
2016,08,19,00,22,17.90
2016,08,19,00,23,17.90
2016,08,19,00,24,17.90
2016,08,19,00,25,17.90
2016,08,19,00,26,17.90
2016,08,19,00,27,17.90
2016,08,19,00,28,17.90
2016,08,19,00,29,17.90
2016,08,19,00,30,17.90
2016,08,19,00,31,17.90
2016,08,19,00,32,17.90
2016,08,19,00,33,17.90
2016,08,19,00,34,17.90
2016,08,19,00,35,17.90
2016,08,19,00,36,17.90
2016,08,19,00,37,17.90
2016,08,19,00,38,17.90
2016,08,19,00,39,17.90
2016,08,19,00,40,17.90
2016,08,19,00,41,17.90
2016,08,19,00,42,17.90
2016,08,19,00,43,17.90
2016,08,19,00,44,17.90
2016,08,19,00,45,17.90
2016,08,19,00,46,17.90
2016,08,19,00,47,17.90
2016,08,19,00,48,17.90
2016,08,19,00,49,17.90
2016,08,19,00,50,17.90
2016,08,19,00,51,17.90
2016,08,19,00,52,17.90
2016,08,19,00,53,17.80
2016,08,19,00,54,17.80
2016,08,19,00,55,17.80
2016,08,19,00,56,17.80
2016,08,19,00,57,17.80
2016,08,19,00,58,17.80
2016,08,19,00,59,17.80
2016,08,19,01,00,17.80
2016,08,19,01,01,17.80
2016,08,19,01,02,17.80
2016,08,19,01,03,17.80
2016,08,19,01,04,17.80
2016,08,19,01,05,17.80
2016,08,19,01,06,17.70
2016,08,19,01,07,17.70
2016,08,19,01,08,17.70
2016,08,19,01,09,17.70
2016,08,19,01,10,17.70
2016,08,19,01,11,17.70
2016,08,19,01,12,17.70
2016,08,19,01,13,17.70
2016,08,19,01,14,17.70
2016,08,19,01,15,17.70
2016,08,19,01,16,17.70
2016,08,19,01,17,17.70
2016,08,19,01,18,17.70
2016,08,19,01,19,17.70
2016,08,19,01,20,17.70
2016,08,19,01,21,17.70
2016,08,19,01,22,17.70
2016,08,19,01,23,17.80
2016,08,19,01,24,17.80
2016,08,19,01,25,17.80
2016,08,19,01,26,17.80
2016,08,19,01,27,17.90
2016,08,19,01,28,17.90
2016,08,19,01,29,17.90
2016,08,19,01,30,17.90
2016,08,19,01,31,17.90
2016,08,19,01,32,17.90
2016,08,19,01,33,17.90
2016,08,19,01,34,17.90
2016,08,19,01,35,17.80
2016,08,19,01,36,17.80
2016,08,19,01,37,17.80
2016,08,19,01,38,17.80
2016,08,19,01,39,17.80
2016,08,19,01,40,17.80
2016,08,19,01,41,17.80
2016,08,19,01,42,17.80
2016,08,19,01,43,17.80
2016,08,19,01,44,17.80
2016,08,19,01,45,17.80
2016,08,19,01,46,17.80
2016,08,19,01,47,17.80
2016,08,19,01,48,17.80
2016,08,19,01,49,17.80
2016,08,19,01,50,17.80
2016,08,19,01,51,17.80
2016,08,19,01,52,17.80
2016,08,19,01,53,17.80
2016,08,19,01,54,17.80
2016,08,19,01,55,17.90
2016,08,19,01,56,17.90
2016,08,19,01,57,17.90
2016,08,19,01,58,17.90
2016,08,19,01,59,17.90
2016,08,19,02,00,17.90
2016,08,19,02,01,17.90
2016,08,19,02,02,17.90
2016,08,19,02,03,17.90
2016,08,19,02,04,18.00
2016,08,19,02,05,18.00
2016,08,19,02,06,18.10
2016,08,19,02,07,18.10
2016,08,19,02,08,18.20
2016,08,19,02,09,18.20
2016,08,19,02,10,18.20
2016,08,19,02,11,18.20
2016,08,19,02,12,18.30
2016,08,19,02,13,18.30
2016,08,19,02,14,18.30
2016,08,19,02,15,18.30
2016,08,19,02,16,18.30
2016,08,19,02,17,18.30
2016,08,19,02,18,18.30
2016,08,19,02,19,18.30
2016,08,19,02,20,18.30
2016,08,19,02,21,18.20
2016,08,19,02,22,18.20
2016,08,19,02,23,18.10
2016,08,19,02,24,18.10
2016,08,19,02,25,18.10
2016,08,19,02,26,18.00
2016,08,19,02,27,18.00
2016,08,19,02,28,17.90
2016,08,19,02,29,17.90
2016,08,19,02,30,17.80
2016,08,19,02,31,17.80
2016,08,19,02,32,17.70
2016,08,19,02,33,17.70
2016,08,19,02,34,17.60
2016,08,19,02,35,17.60
2016,08,19,02,36,17.60
2016,08,19,02,37,17.50
2016,08,19,02,38,17.50
2016,08,19,02,39,17.40
2016,08,19,02,40,17.40
2016,08,19,02,41,17.40
2016,08,19,02,42,17.40
2016,08,19,02,43,17.30
2016,08,19,02,44,17.30
2016,08,19,02,45,17.30
2016,08,19,02,46,17.30
2016,08,19,02,47,17.30
2016,08,19,02,48,17.30
2016,08,19,02,49,17.20
2016,08,19,02,50,17.20
2016,08,19,02,51,17.20
2016,08,19,02,52,17.20
2016,08,19,02,53,17.20
2016,08,19,02,54,17.20
2016,08,19,02,55,17.30
2016,08,19,02,56,17.30
2016,08,19,02,57,17.30
2016,08,19,02,58,17.30
2016,08,19,02,59,17.30
2016,08,19,03,00,17.30
2016,08,19,03,01,17.30
2016,08,19,03,02,17.30
2016,08,19,03,03,17.30
2016,08,19,03,04,17.30
2016,08,19,03,05,17.40
2016,08,19,03,06,17.40
2016,08,19,03,07,17.40
2016,08,19,03,08,17.40
2016,08,19,03,09,17.40
2016,08,19,03,10,17.40
2016,08,19,03,11,17.40
2016,08,19,03,12,17.40
2016,08,19,03,13,17.40
2016,08,19,03,14,17.40
2016,08,19,03,15,17.40
2016,08,19,03,16,17.40
2016,08,19,03,17,17.40
2016,08,19,03,18,17.50
2016,08,19,03,19,17.50
2016,08,19,03,20,17.60
2016,08,19,03,21,17.70
2016,08,19,03,22,17.80
2016,08,19,03,23,17.80
2016,08,19,03,24,17.90
2016,08,19,03,25,17.90
2016,08,19,03,26,18.00
2016,08,19,03,27,18.10
2016,08,19,03,28,18.20
2016,08,19,03,29,18.30
2016,08,19,03,30,18.30
2016,08,19,03,31,18.40
2016,08,19,03,32,18.50
2016,08,19,03,33,18.60
2016,08,19,03,34,18.70
2016,08,19,03,35,18.80
2016,08,19,03,36,18.80
2016,08,19,03,37,18.90
2016,08,19,03,38,19.00
2016,08,19,03,39,19.10
2016,08,19,03,40,19.20
2016,08,19,03,41,19.30
2016,08,19,03,42,19.30
2016,08,19,03,43,19.40
2016,08,19,03,44,19.50
2016,08,19,03,45,19.60
2016,08,19,03,46,19.60
2016,08,19,03,47,19.70
2016,08,19,03,48,19.70
2016,08,19,03,49,19.70
2016,08,19,03,50,19.70
2016,08,19,03,51,19.80
2016,08,19,03,52,19.80
2016,08,19,03,53,19.80
2016,08,19,03,54,19.80
2016,08,19,03,55,19.80
2016,08,19,03,56,19.80
2016,08,19,03,57,19.80
2016,08,19,03,58,19.90
2016,08,19,03,59,19.90
2016,08,19,04,00,19.90
2016,08,19,04,01,19.90
2016,08,19,04,02,19.90
2016,08,19,04,03,19.80
2016,08,19,04,04,19.80
2016,08,19,04,05,19.80
2016,08,19,04,06,19.80
2016,08,19,04,07,19.80
2016,08,19,04,08,19.80
2016,08,19,04,09,19.70
2016,08,19,04,10,19.70
2016,08,19,04,11,19.70
2016,08,19,04,12,19.70
2016,08,19,04,13,19.60
2016,08,19,04,14,19.60
2016,08,19,04,15,19.60
2016,08,19,04,16,19.50
2016,08,19,04,17,19.40
2016,08,19,04,18,19.40
2016,08,19,04,19,19.30
2016,08,19,04,20,19.30
2016,08,19,04,21,19.20
2016,08,19,04,22,19.20
2016,08,19,04,23,19.10
2016,08,19,04,24,19.10
2016,08,19,04,25,19.00
2016,08,19,04,26,18.90
2016,08,19,04,27,18.90
2016,08,19,04,28,18.80
2016,08,19,04,29,18.80
2016,08,19,04,30,18.70
2016,08,19,04,31,18.60
2016,08,19,04,32,18.60
2016,08,19,04,33,18.50
2016,08,19,04,34,18.40
2016,08,19,04,35,18.40
2016,08,19,04,36,18.40
2016,08,19,04,37,18.30
2016,08,19,04,38,18.30
2016,08,19,04,39,18.30
2016,08,19,04,40,18.30
2016,08,19,04,41,18.30
2016,08,19,04,42,18.20
2016,08,19,04,43,18.20
2016,08,19,04,44,18.20
2016,08,19,04,45,18.20
2016,08,19,04,46,18.20
2016,08,19,04,47,18.20
2016,08,19,04,48,18.20
2016,08,19,04,49,18.20
2016,08,19,04,50,18.20
2016,08,19,04,51,18.20
2016,08,19,04,52,18.20
2016,08,19,04,53,18.20
2016,08,19,04,54,18.20
2016,08,19,04,55,18.20
2016,08,19,04,56,18.20
2016,08,19,04,57,18.20
2016,08,19,04,58,18.20
2016,08,19,04,59,18.20
2016,08,19,05,00,18.30
2016,08,19,05,01,18.30
2016,08,19,05,02,18.40
2016,08,19,05,03,18.40
2016,08,19,05,04,18.40
2016,08,19,05,05,18.50
2016,08,19,05,06,18.50
2016,08,19,05,07,18.60
2016,08,19,05,08,18.60
2016,08,19,05,09,18.70
2016,08,19,05,10,18.70
2016,08,19,05,11,18.80
2016,08,19,05,12,18.90
2016,08,19,05,13,19.00
2016,08,19,05,14,19.10
2016,08,19,05,15,19.20
2016,08,19,05,16,19.20
2016,08,19,05,17,19.30
2016,08,19,05,18,19.40
2016,08,19,05,19,19.40
2016,08,19,05,20,19.50
2016,08,19,05,21,19.60
2016,08,19,05,22,19.60
2016,08,19,05,23,19.70
2016,08,19,05,24,19.80
2016,08,19,05,25,19.90
2016,08,19,05,26,19.90
2016,08,19,05,27,20.00
2016,08,19,05,28,20.10
2016,08,19,05,29,20.10
2016,08,19,05,30,20.20
2016,08,19,05,31,20.30
2016,08,19,05,32,20.30
2016,08,19,05,33,20.30
2016,08,19,05,34,20.40
2016,08,19,05,35,20.50
2016,08,19,05,36,20.50
2016,08,19,05,37,20.60
2016,08,19,05,38,20.60
2016,08,19,05,39,20.60
2016,08,19,05,40,20.60
2016,08,19,05,41,20.70
2016,08,19,05,42,20.70
2016,08,19,05,43,20.70
2016,08,19,05,44,20.70
2016,08,19,05,45,20.70
2016,08,19,05,46,20.70
2016,08,19,05,47,20.70
2016,08,19,05,48,20.60
2016,08,19,05,49,20.60
2016,08,19,05,50,20.60
2016,08,19,05,51,20.50
2016,08,19,05,52,20.50
2016,08,19,05,53,20.50
2016,08,19,05,54,20.50
2016,08,19,05,55,20.40
2016,08,19,05,56,20.40
2016,08,19,05,57,20.40
2016,08,19,05,58,20.30
2016,08,19,05,59,20.30
2016,08,19,06,00,20.20
2016,08,19,06,01,20.20
2016,08,19,06,02,20.20
2016,08,19,06,03,20.10
2016,08,19,06,04,20.10
2016,08,19,06,05,20.00
2016,08,19,06,06,19.90
2016,08,19,06,07,19.90
2016,08,19,06,08,19.80
2016,08,19,06,09,19.80
2016,08,19,06,10,19.70
2016,08,19,06,11,19.60
2016,08,19,06,12,19.50
2016,08,19,06,13,19.40
2016,08,19,06,14,19.40
2016,08,19,06,15,19.30
2016,08,19,06,16,19.20
2016,08,19,06,17,19.10
2016,08,19,06,18,19.00
2016,08,19,06,19,18.90
2016,08,19,06,20,18.80
2016,08,19,06,21,18.70
2016,08,19,06,22,18.70
2016,08,19,06,23,18.60
2016,08,19,06,24,18.50
2016,08,19,06,25,18.40
2016,08,19,06,26,18.40
2016,08,19,06,27,18.30
2016,08,19,06,28,18.30
2016,08,19,06,29,18.20
2016,08,19,06,30,18.20
2016,08,19,06,31,18.10
2016,08,19,06,32,18.10
2016,08,19,06,33,18.00
2016,08,19,06,34,18.00
2016,08,19,06,35,17.90
2016,08,19,06,36,17.90
2016,08,19,06,37,17.90
2016,08,19,06,38,17.80
2016,08,19,06,39,17.80
2016,08,19,06,40,17.80
2016,08,19,06,41,17.80
2016,08,19,06,42,17.70
2016,08,19,06,43,17.70
2016,08,19,06,44,17.70
2016,08,19,06,45,17.70
2016,08,19,06,46,17.70
2016,08,19,06,47,17.70
2016,08,19,06,48,17.70
2016,08,19,06,49,17.60
2016,08,19,06,50,17.60
2016,08,19,06,51,17.60
2016,08,19,06,52,17.60
2016,08,19,06,53,17.60
2016,08,19,06,54,17.60
2016,08,19,06,55,17.60
2016,08,19,06,56,17.60
2016,08,19,06,57,17.60
2016,08,19,06,58,17.60
2016,08,19,06,59,17.60
2016,08,19,07,00,17.60
2016,08,19,07,01,17.60
2016,08,19,07,02,17.60
2016,08,19,07,03,17.60
2016,08,19,07,04,17.50
2016,08,19,07,05,17.50
2016,08,19,07,06,17.50
2016,08,19,07,07,17.50
2016,08,19,07,08,17.60
2016,08,19,07,09,17.50
2016,08,19,07,10,17.50
2016,08,19,07,11,17.60
2016,08,19,07,12,17.60
2016,08,19,07,13,17.60
2016,08,19,07,14,17.60
2016,08,19,07,15,17.60
2016,08,19,07,16,17.60
2016,08,19,07,17,17.70
2016,08,19,07,18,17.70
2016,08,19,07,19,17.70
2016,08,19,07,20,17.70
2016,08,19,07,21,17.70
2016,08,19,07,22,17.80
2016,08,19,07,23,17.80
2016,08,19,07,24,17.80
2016,08,19,07,25,17.80
2016,08,19,07,26,17.80
2016,08,19,07,27,17.80
2016,08,19,07,28,17.80
2016,08,19,07,29,17.90
2016,08,19,07,30,17.90
2016,08,19,07,31,17.90
2016,08,19,07,32,17.90
2016,08,19,07,33,18.00
2016,08,19,07,34,18.00
2016,08,19,07,35,18.10
2016,08,19,07,36,18.10
2016,08,19,07,37,18.10
2016,08,19,07,38,18.20
2016,08,19,07,39,18.20
2016,08,19,07,40,18.20
2016,08,19,07,41,18.30
2016,08,19,07,42,18.30
2016,08,19,07,43,18.30
2016,08,19,07,44,18.40
2016,08,19,07,45,18.40
2016,08,19,07,46,18.40
2016,08,19,07,47,18.50
2016,08,19,07,48,18.50
2016,08,19,07,49,18.60
2016,08,19,07,50,18.60
2016,08,19,07,51,18.60
2016,08,19,07,52,18.60
2016,08,19,07,53,18.70
2016,08,19,07,54,18.70
2016,08,19,07,55,18.70
2016,08,19,07,56,18.70
2016,08,19,07,57,18.80
2016,08,19,07,58,18.80
2016,08,19,07,59,18.80
2016,08,19,08,00,18.90
2016,08,19,08,01,18.90
2016,08,19,08,02,18.90
2016,08,19,08,03,19.00
2016,08,19,08,04,19.00
2016,08,19,08,05,19.10
2016,08,19,08,06,19.10
2016,08,19,08,07,19.20
2016,08,19,08,08,19.20
2016,08,19,08,09,19.30
2016,08,19,08,10,19.30
2016,08,19,08,11,19.40
2016,08,19,08,12,19.40
2016,08,19,08,13,19.50
2016,08,19,08,14,19.60
2016,08,19,08,15,19.60
2016,08,19,08,16,19.70
2016,08,19,08,17,19.80
2016,08,19,08,18,19.80
2016,08,19,08,19,19.90
2016,08,19,08,20,20.00
2016,08,19,08,21,20.10
2016,08,19,08,22,20.10
2016,08,19,08,23,20.20
2016,08,19,08,24,20.30
2016,08,19,08,25,20.30
2016,08,19,08,26,20.40
2016,08,19,08,27,20.60
2016,08,19,08,28,20.70
2016,08,19,08,29,20.80
2016,08,19,08,30,20.90
2016,08,19,08,31,21.00
2016,08,19,08,32,21.00
2016,08,19,08,33,21.10
2016,08,19,08,34,21.20
2016,08,19,08,35,21.20
2016,08,19,08,36,21.30
2016,08,19,08,37,21.30
2016,08,19,08,38,21.30
2016,08,19,08,39,21.40
2016,08,19,08,40,21.40
2016,08,19,08,41,21.50
2016,08,19,08,42,21.50
2016,08,19,08,43,21.60
2016,08,19,08,44,21.60
2016,08,19,08,45,21.60
2016,08,19,08,46,21.70
2016,08,19,08,47,21.80
2016,08,19,08,48,21.90
2016,08,19,08,49,21.90
2016,08,19,08,50,22.00
2016,08,19,08,51,22.10
2016,08,19,08,52,22.20
2016,08,19,08,53,22.30
2016,08,19,08,54,22.30
2016,08,19,08,55,22.40
2016,08,19,08,56,22.50
2016,08,19,08,57,22.60
2016,08,19,08,58,22.70
2016,08,19,08,59,22.70
2016,08,19,09,00,22.80
2016,08,19,09,01,22.80
2016,08,19,09,02,22.90
2016,08,19,09,03,23.00
2016,08,19,09,04,23.00
2016,08,19,09,05,23.10
2016,08,19,09,06,23.10
2016,08,19,09,07,23.20
2016,08,19,09,08,23.20
2016,08,19,09,09,23.30
2016,08,19,09,10,23.30
2016,08,19,09,11,23.40
2016,08,19,09,12,23.50
2016,08,19,09,13,23.50
2016,08,19,09,14,23.60
2016,08,19,09,15,23.70
2016,08,19,09,16,23.80
2016,08,19,09,17,23.90
2016,08,19,09,18,24.00
2016,08,19,09,19,24.10
2016,08,19,09,20,24.20
2016,08,19,09,21,24.30
2016,08,19,09,22,24.40
2016,08,19,09,23,24.50
2016,08,19,09,24,24.60
2016,08,19,09,25,24.70
2016,08,19,09,26,24.80
2016,08,19,09,27,25.00
2016,08,19,09,28,25.10
2016,08,19,09,29,25.20
2016,08,19,09,30,25.30
2016,08,19,09,31,25.40
2016,08,19,09,32,25.50
2016,08,19,09,33,25.60
2016,08,19,09,34,25.70
2016,08,19,09,35,25.80
2016,08,19,09,36,25.90
2016,08,19,09,37,26.00
2016,08,19,09,38,26.10
2016,08,19,09,39,26.20
2016,08,19,09,40,26.30
2016,08,19,09,41,26.40
2016,08,19,09,42,26.50
2016,08,19,09,43,26.50
2016,08,19,09,44,26.60
2016,08,19,09,45,26.70
2016,08,19,09,46,26.70
2016,08,19,09,47,26.80
2016,08,19,09,48,26.80
2016,08,19,09,49,26.90
2016,08,19,09,50,26.90
2016,08,19,09,51,27.00
2016,08,19,09,52,27.00
2016,08,19,09,53,27.10
2016,08,19,09,54,27.10
2016,08,19,09,55,27.20
2016,08,19,09,56,27.20
2016,08,19,09,57,27.20
2016,08,19,09,58,27.30
2016,08,19,09,59,27.30
2016,08,19,10,00,27.40
2016,08,19,10,01,27.40
2016,08,19,10,02,27.40
2016,08,19,10,03,27.50
2016,08,19,10,04,27.50
2016,08,19,10,05,27.60
2016,08,19,10,06,27.60
2016,08,19,10,07,27.70
2016,08,19,10,08,27.70
2016,08,19,10,09,27.70
2016,08,19,10,10,27.80
2016,08,19,10,11,27.80
2016,08,19,10,12,27.80
2016,08,19,10,13,27.90
2016,08,19,10,14,27.90
2016,08,19,10,15,28.00
2016,08,19,10,16,28.00
2016,08,19,10,17,28.00
2016,08,19,10,18,28.10
2016,08,19,10,19,28.10
2016,08,19,10,20,28.10
2016,08,19,10,21,28.20
2016,08,19,10,22,28.20
2016,08,19,10,23,28.20
2016,08,19,10,24,28.20
2016,08,19,10,25,28.20
2016,08,19,10,26,28.20
2016,08,19,10,27,28.20
2016,08,19,10,28,28.20
2016,08,19,10,29,28.20
2016,08,19,10,30,28.30
2016,08,19,10,31,28.30
2016,08,19,10,32,28.30
2016,08,19,10,33,28.30
2016,08,19,10,34,28.30
2016,08,19,10,35,28.30
2016,08,19,10,36,28.40
2016,08,19,10,37,28.40
2016,08,19,10,38,28.40
2016,08,19,10,39,28.40
2016,08,19,10,40,28.50
2016,08,19,10,41,28.50
2016,08,19,10,42,28.50
2016,08,19,10,43,28.50
2016,08,19,10,44,28.60
2016,08,19,10,45,28.60
2016,08,19,10,46,28.60
2016,08,19,10,47,28.60
2016,08,19,10,48,28.60
2016,08,19,10,49,28.60
2016,08,19,10,50,28.60
2016,08,19,10,51,28.70
2016,08,19,10,52,28.70
2016,08,19,10,53,28.70
2016,08,19,10,54,28.70
2016,08,19,10,55,28.70
2016,08,19,10,56,28.80
2016,08,19,10,57,28.80
2016,08,19,10,58,28.80
2016,08,19,10,59,28.80
2016,08,19,11,00,28.80
2016,08,19,11,01,28.90
2016,08,19,11,02,29.00
2016,08,19,11,03,29.00
2016,08,19,11,04,29.10
2016,08,19,11,05,29.10
2016,08,19,11,06,29.20
2016,08,19,11,07,29.20
2016,08,19,11,08,29.30
2016,08,19,11,09,29.40
2016,08,19,11,10,29.50
2016,08,19,11,11,29.60
2016,08,19,11,12,29.60
2016,08,19,11,13,29.70
2016,08,19,11,14,29.70
2016,08,19,11,15,29.70
2016,08,19,11,16,29.70
2016,08,19,11,17,29.70
2016,08,19,11,18,29.70
2016,08,19,11,19,29.70
2016,08,19,11,20,29.70
2016,08,19,11,21,29.70
2016,08,19,11,22,29.70
2016,08,19,11,23,29.80
2016,08,19,11,24,29.80
2016,08,19,11,25,29.80
2016,08,19,11,26,29.90
2016,08,19,11,27,29.90
2016,08,19,11,28,29.90
2016,08,19,11,29,30.00
2016,08,19,11,30,30.00
2016,08,19,11,31,30.00
2016,08,19,11,32,30.00
2016,08,19,11,33,30.00
2016,08,19,11,34,30.10
2016,08,19,11,35,30.10
2016,08,19,11,36,30.10
2016,08,19,11,37,30.10
2016,08,19,11,38,30.10
2016,08,19,11,39,30.10
2016,08,19,11,40,30.20
2016,08,19,11,41,30.20
2016,08,19,11,42,30.20
2016,08,19,11,43,30.20
2016,08,19,11,44,30.20
2016,08,19,11,45,30.20
2016,08,19,11,46,30.20
2016,08,19,11,47,30.20
2016,08,19,11,48,30.20
2016,08,19,11,49,30.20
2016,08,19,11,50,30.30
2016,08,19,11,51,30.30
2016,08,19,11,52,30.40
2016,08,19,11,53,30.50
2016,08,19,11,54,30.50
2016,08,19,11,55,30.60
2016,08,19,11,56,30.60
2016,08,19,11,57,30.60
2016,08,19,11,58,30.70
2016,08,19,11,59,30.70
2016,08,19,12,00,30.80
2016,08,19,12,01,30.80
2016,08,19,12,02,30.80
2016,08,19,12,03,30.80
2016,08,19,12,04,30.70
2016,08,19,12,05,30.70
2016,08,19,12,06,30.70
2016,08,19,12,07,30.70
2016,08,19,12,08,30.70
2016,08,19,12,09,30.70
2016,08,19,12,10,30.80
2016,08,19,12,11,30.80
2016,08,19,12,12,30.90
2016,08,19,12,13,30.90
2016,08,19,12,14,30.90
2016,08,19,12,15,31.00
2016,08,19,12,16,31.00
2016,08,19,12,17,31.10
2016,08,19,12,18,31.10
2016,08,19,12,19,31.20
2016,08,19,12,20,31.20
2016,08,19,12,21,31.20
2016,08,19,12,22,31.30
2016,08,19,12,23,31.30
2016,08,19,12,24,31.40
2016,08,19,12,25,31.40
2016,08,19,12,26,31.40
2016,08,19,12,27,31.40
2016,08,19,12,28,31.40
2016,08,19,12,29,31.40
2016,08,19,12,30,31.40
2016,08,19,12,31,31.40
2016,08,19,12,32,31.40
2016,08,19,12,33,31.40
2016,08,19,12,34,31.50
2016,08,19,12,35,31.60
2016,08,19,12,36,31.60
2016,08,19,12,37,31.70
2016,08,19,12,38,31.70
2016,08,19,12,39,31.70
2016,08,19,12,40,31.80
2016,08,19,12,41,31.80
2016,08,19,12,42,31.80
2016,08,19,12,43,31.90
2016,08,19,12,44,31.90
2016,08,19,12,45,32.00
2016,08,19,12,46,32.00
2016,08,19,12,47,32.00
2016,08,19,12,48,32.00
2016,08,19,12,49,32.00
2016,08,19,12,50,32.00
2016,08,19,12,51,31.90
2016,08,19,12,52,31.90
2016,08,19,12,53,31.90
2016,08,19,12,54,31.90
2016,08,19,12,55,31.90
2016,08,19,12,56,31.90
2016,08,19,12,57,31.90
2016,08,19,12,58,31.80
2016,08,19,12,59,31.80
2016,08,19,13,00,31.90
2016,08,19,13,01,31.80
2016,08,19,13,02,31.90
2016,08,19,13,03,31.90
2016,08,19,13,04,31.80
2016,08,19,13,05,31.80
2016,08,19,13,06,31.80
2016,08,19,13,07,31.90
2016,08,19,13,08,31.90
2016,08,19,13,09,31.90
2016,08,19,13,10,31.90
2016,08,19,13,11,32.00
2016,08,19,13,12,32.00
2016,08,19,13,13,32.00
2016,08,19,13,14,32.10
2016,08,19,13,15,32.00
2016,08,19,13,16,32.00
2016,08,19,13,17,32.00
2016,08,19,13,18,32.00
2016,08,19,13,19,31.90
2016,08,19,13,20,31.90
2016,08,19,13,21,31.90
2016,08,19,13,22,31.90
2016,08,19,13,23,31.90
2016,08,19,13,24,31.90
2016,08,19,13,25,31.90
2016,08,19,13,26,31.90
2016,08,19,13,27,32.00
2016,08,19,13,28,32.00
2016,08,19,13,29,32.00
2016,08,19,13,30,32.10
2016,08,19,13,31,32.10
2016,08,19,13,32,32.10
2016,08,19,13,33,32.20
2016,08,19,13,34,32.20
2016,08,19,13,35,32.20
2016,08,19,13,36,32.20
2016,08,19,13,37,32.30
2016,08,19,13,38,32.30
2016,08,19,13,39,32.20
2016,08,19,13,40,32.30
2016,08,19,13,41,32.30
2016,08,19,13,42,32.30
2016,08,19,13,43,32.30
2016,08,19,13,44,32.40
2016,08,19,13,45,32.40
2016,08,19,13,46,32.50
2016,08,19,13,47,32.50
2016,08,19,13,48,32.60
2016,08,19,13,49,32.60
2016,08,19,13,50,32.70
2016,08,19,13,51,32.70
2016,08,19,13,52,32.70
2016,08,19,13,53,32.80
2016,08,19,13,54,32.80
2016,08,19,13,55,32.80
2016,08,19,13,56,32.80
2016,08,19,13,57,32.80
2016,08,19,13,58,32.80
2016,08,19,13,59,32.80
2016,08,19,14,00,32.80
2016,08,19,14,01,32.80
2016,08,19,14,02,32.90
2016,08,19,14,03,32.90
2016,08,19,14,04,33.00
2016,08,19,14,05,33.00
2016,08,19,14,06,33.10
2016,08,19,14,07,33.10
2016,08,19,14,08,33.20
2016,08,19,14,09,33.20
2016,08,19,14,10,33.20
2016,08,19,14,11,33.30
2016,08,19,14,12,33.30
2016,08,19,14,13,33.30
2016,08,19,14,14,33.40
2016,08,19,14,15,33.40
2016,08,19,14,16,33.30
2016,08,19,14,17,33.30
2016,08,19,14,18,33.20
2016,08,19,14,19,33.20
2016,08,19,14,20,33.20
2016,08,19,14,21,33.10
2016,08,19,14,22,33.10
2016,08,19,14,23,33.10
2016,08,19,14,24,33.00
2016,08,19,14,25,33.10
2016,08,19,14,26,33.00
2016,08,19,14,27,33.00
2016,08,19,14,28,33.00
2016,08,19,14,29,33.00
2016,08,19,14,30,33.10
2016,08,19,14,31,33.10
2016,08,19,14,32,33.10
2016,08,19,14,33,33.20
2016,08,19,14,34,33.20
2016,08,19,14,35,33.20
2016,08,19,14,36,33.30
2016,08,19,14,37,33.30
2016,08,19,14,38,33.30
2016,08,19,14,39,33.30
2016,08,19,14,40,33.40
2016,08,19,14,41,33.40
2016,08,19,14,42,33.50
2016,08,19,14,43,33.50
2016,08,19,14,44,33.60
2016,08,19,14,45,33.60
2016,08,19,14,46,33.60
2016,08,19,14,47,33.70
2016,08,19,14,48,33.70
2016,08,19,14,49,33.60
2016,08,19,14,50,33.60
2016,08,19,14,51,33.50
2016,08,19,14,52,33.50
2016,08,19,14,53,33.50
2016,08,19,14,54,33.50
2016,08,19,14,55,33.60
2016,08,19,14,56,33.60
2016,08,19,14,57,33.60
2016,08,19,14,58,33.60
2016,08,19,14,59,33.70
2016,08,19,15,00,33.70
2016,08,19,15,01,33.70
2016,08,19,15,02,33.80
2016,08,19,15,03,33.80
2016,08,19,15,04,33.80
2016,08,19,15,05,33.80
2016,08,19,15,06,33.80
2016,08,19,15,07,33.80
2016,08,19,15,08,33.80
2016,08,19,15,09,33.80
2016,08,19,15,10,33.80
2016,08,19,15,11,33.90
2016,08,19,15,12,34.00
2016,08,19,15,13,34.00
2016,08,19,15,14,34.10
2016,08,19,15,15,34.20
2016,08,19,15,16,34.20
2016,08,19,15,17,34.30
2016,08,19,15,18,34.30
2016,08,19,15,19,34.40
2016,08,19,15,20,34.40
2016,08,19,15,21,34.40
2016,08,19,15,22,34.50
2016,08,19,15,23,34.50
2016,08,19,15,24,34.50
2016,08,19,15,25,34.60
2016,08,19,15,26,34.60
2016,08,19,15,27,34.60
2016,08,19,15,28,34.70
2016,08,19,15,29,34.70
2016,08,19,15,30,34.70
2016,08,19,15,31,34.80
2016,08,19,15,32,34.80
2016,08,19,15,33,34.80
2016,08,19,15,34,34.80
2016,08,19,15,35,34.70
2016,08,19,15,36,34.60
2016,08,19,15,37,34.50
2016,08,19,15,38,34.40
2016,08,19,15,39,34.30
2016,08,19,15,40,34.20
2016,08,19,15,41,34.20
2016,08,19,15,42,34.10
2016,08,19,15,43,34.00
2016,08,19,15,44,33.90
2016,08,19,15,45,33.90
2016,08,19,15,46,33.80
2016,08,19,15,47,33.80
2016,08,19,15,48,33.70
2016,08,19,15,49,33.60
2016,08,19,15,50,33.50
2016,08,19,15,51,33.40
2016,08,19,15,52,33.40
2016,08,19,15,53,33.30
2016,08,19,15,54,33.30
2016,08,19,15,55,33.30
2016,08,19,15,56,33.30
2016,08,19,15,57,33.20
2016,08,19,15,58,33.20
2016,08,19,15,59,33.10
2016,08,19,16,00,33.00
2016,08,19,16,01,33.00
2016,08,19,16,02,32.90
2016,08,19,16,03,32.80
2016,08,19,16,04,32.80
2016,08,19,16,05,32.70
2016,08,19,16,06,32.60
2016,08,19,16,07,32.60
2016,08,19,16,08,32.60
2016,08,19,16,09,32.60
2016,08,19,16,10,32.60
2016,08,19,16,11,32.70
2016,08,19,16,12,32.80
2016,08,19,16,13,32.80
2016,08,19,16,14,32.90
2016,08,19,16,15,33.00
2016,08,19,16,16,33.10
2016,08,19,16,17,33.20
2016,08,19,16,18,33.30
2016,08,19,16,19,33.40
2016,08,19,16,20,33.50
2016,08,19,16,21,33.60
2016,08,19,16,22,33.60
2016,08,19,16,23,33.60
2016,08,19,16,24,33.70
2016,08,19,16,25,33.70
2016,08,19,16,26,33.80
2016,08,19,16,27,33.80
2016,08,19,16,28,33.90
2016,08,19,16,29,33.90
2016,08,19,16,30,33.90
2016,08,19,16,31,33.90
2016,08,19,16,32,33.90
2016,08,19,16,33,33.90
2016,08,19,16,34,33.90
2016,08,19,16,35,33.90
2016,08,19,16,36,33.80
2016,08,19,16,37,33.80
2016,08,19,16,38,33.70
2016,08,19,16,39,33.60
2016,08,19,16,40,33.40
2016,08,19,16,41,33.30
2016,08,19,16,42,33.10
2016,08,19,16,43,32.90
2016,08,19,16,44,32.60
2016,08,19,16,45,32.40
2016,08,19,16,46,32.20
2016,08,19,16,47,32.00
2016,08,19,16,48,31.70
2016,08,19,16,49,31.50
2016,08,19,16,50,31.30
2016,08,19,16,51,31.20
2016,08,19,16,52,31.00
2016,08,19,16,53,31.00
2016,08,19,16,54,30.90
2016,08,19,16,55,30.90
2016,08,19,16,56,30.90
2016,08,19,16,57,30.90
2016,08,19,16,58,30.90
2016,08,19,16,59,30.90
2016,08,19,17,00,30.90
2016,08,19,17,01,31.00
2016,08,19,17,02,31.00
2016,08,19,17,03,31.10
2016,08,19,17,04,31.10
2016,08,19,17,05,31.10
2016,08,19,17,06,31.10
2016,08,19,17,07,31.20
2016,08,19,17,08,31.20
2016,08,19,17,09,31.20
2016,08,19,17,10,31.20
2016,08,19,17,11,31.30
2016,08,19,17,12,31.30
2016,08,19,17,13,31.30
2016,08,19,17,14,31.30
2016,08,19,17,15,31.30
2016,08,19,17,16,31.40
2016,08,19,17,17,31.40
2016,08,19,17,18,31.50
2016,08,19,17,19,31.50